Showing default

SGDC, 42692

Orbit data source: Space-Track

SGDC, 42692 is a payload satellite owned by Telebras (BR) in GEO that was launched on Thu, 04 May 2017 UTC via an ARIANE 5ECA launch vehicle from the French Guiana (FRGUI). Payload-class satellites include a variety of spacecraft equipped with specific instruments for various scientific and technological missions. These include communications satellites like Starlink; space stations such as the ISS; scientific satellites like the Hubble; Earth observation satellites from companies like Planet Labs, Umbra, and HawkEye 360; GPS; miniature CubeSats for education and research; and military/defense satellites.

Loading next visibility...
Identifier
42692, 2017-023B
Orbit
GEO
Country
Flag of BRBR / BRAZ
Related business
Manufacturer
Thales Alenia
Mission
Operational Defense Communications
Bus & Motor
SPACEBUS 4000C4, S400
Mass
5,735 kg wet, ~2,500 kg dry
Launch date (UTC)
2017-05-04 (9 years ago)
Launch vehicle
ARIANE 5ECA
Launch site
French Guiana (FRGUI)
Object type
Payload
Rocket body
Debris
Shape & HBR
Box + 2 Pan, 18.5 m
Radar Cross Section
34.994 m², Large (>1 m²)

Expand to show TLE details & history
Last TLE update: 3 days ago

TLE from 3 days ago
0 SGDC
1 42692U 17023B   26170.46442940 -.00000255  00000-0  00000-0 0  9998
2 42692   0.0156   1.6765 0002663  94.1070 264.2343  1.00269861 33430
Epoch: 2026-06-19T11:08Z
TLE epoch observation values (Epoch: 2026-06-19T11:08:46.700Z)
Latitude
-0.00106°
Longitude
-74.88761°
Altitude
35,787.747 km
Speed
3.075 km/s
True Right ascension
23h 59m 59s
True Declination
0° 00' 04"
Sunlit
Object was in daylight at epoch
Visualization orbit readout
Latitude
Unknown
Longitude
Unknown
Altitude
Unknown
Speed
Unknown
Apparent Right ascension
Unknown
Apparent Declination
Unknown
Sunlit
N/A
Visualization observer readout
Local Sidereal Time
21:41:04
Azimuth
Unknown
Elevation
Unknown
Doppler factor
Unknown
Orbital elements
Apogee altitude
35,799.434 km
Perigee altitude
35,776.976 km
Semi-major axis
42,166.342 km
Eccentricity
0.00027
Inclination
0.0156°
RAAN
1.6765°
Arg. of periapsis
94.107°
True anomaly
264.20394°
Mean anomaly
264.2343°
Eccentric anomaly
264.21912°
Mean motion
0.25067 °/min
Orbital period
1,436.18 mins
BSTAR
0
Loading maneuver chart data...
Computing Atmospheric mass density...
Loading historical data...
Loading historical data...
Loading historical data...
Loading historical data...
Loading historical data...
Loading historical data...
Loading historical data...
Other satellites on launch #23 in the year 2017 (2017-05-04 UTC)

Documentation

Showing up to 5 results
|